Location: Recife
(8.0585°S, 34.8848°W)
Time: 14:41:03
(UTC-03:00)

Tiros 1 despin weight - Pass Details

Date: 14 April 2026
Orbit: 555 x 591 km, 48.2° (Epoch: 14 May)

Event Time Altitude Azimuth Distance (km) Brightness Sun altitude
Rises 01:08:34 0° 342° (NNW) 2,801 - -63.1°
Reaches altitude 10° 01:11:09 10° 355° (N) 1,903 - -62.5°
Maximum altitude 01:14:47 26° 52° (NE) 1,177 - -61.6°
Drops below altitude 10° 01:18:24 10° 108° (ESE) 1,903 - -60.7°
Sets 01:20:58 0° 121° (ESE) 2,801 - -60.1°
